Home > Weather > Ontario > Past weeks

Flag for USA Weather for the Past 2 Weeks in Ontario, California, USA

Now
54 °F

Passing clouds.


Feels Like: 54 °F
Forecast: 54 / 81 °F
Wind: No wind

Location: Ontario International Airport

Current Time: May 2, 2016 at 6:34:57 AM

Latest Report: May 2, 2016 at 5:53 AM


Visibility: 8 mi

Pressure: 29.97 "Hg

Humidity: 86%

Dew Point: 50 °F

Location of OntarioLocation

Historic Weather in Ontario — Graph

°F

Ontario Temperature Yesterday

Maximum temperature yesterday: 76 °F (at 4:53 PM)
Minimum temperature yesterday: 51 °F (at 5:53 AM)
Average temperature yesterday: 62 °F

High & Low Weather Summary for the Past Weeks

 TemperatureHumidityPressure
High91 °F (Apr 19, 2:53 PM)93% (Apr 30, 6:53 AM)30.05 "Hg (Apr 30, 6:53 AM)
Low47 °F (Apr 26, 2:53 AM)4% (Apr 17, 1:53 PM)29.72 "Hg (Apr 27, 11:53 PM)
Average65 °F46%29.89 "Hg
* Reported Apr 17 4:53 AM — May 2 4:53 AM, Ontario, Weather by CustomWeather, © 2016

Note: Actual official high and low records may vary slightly from our data, if they occured in-between our weather recording intervals... More about our weather records

Advertising

Ontario Weather History for the Previous 24 Hours

Scroll right to see more
 ConditionsComfort  
Time TempWeatherWind HumidityBarometerVisibility
4:53 AM
Mon, May 2
54 °FPassing clouds.No wind86%29.97 "Hg9 mi
3:53 AM54 °FPassing clouds.No wind86%29.97 "Hg9 mi
2:53 AM55 °FPassing clouds.3 mph83%29.97 "Hg9 mi
1:53 AM55 °FPassing clouds.6 mph83%29.98 "Hg10 mi
12:53 AM56 °FPassing clouds.10 mph81%29.99 "Hg10 mi
11:53 PM
Sun, May 1
57 °FPassing clouds.9 mph78%29.99 "Hg10 mi
10:53 PM58 °FPassing clouds.9 mph78%29.98 "Hg10 mi
9:53 PM59 °FPassing clouds.7 mph75%29.98 "Hg10 mi
8:53 PM61 °FPassing clouds.8 mph67%29.94 "Hg10 mi
7:53 PM63 °FPassing clouds.12 mph63%29.91 "Hg10 mi
6:53 PM66 °FPassing clouds.14 mph56%29.89 "Hg10 mi
5:53 PM73 °FPassing clouds.14 mph41%29.87 "Hg10 mi
4:53 PM76 °FScattered clouds.14 mph37%29.86 "Hg10 mi
3:53 PM74 °FScattered clouds.13 mph41%29.86 "Hg10 mi
2:53 PM75 °FPassing clouds.13 mph40%29.87 "Hg10 mi
1:53 PM74 °FPassing clouds.15 mph41%29.88 "Hg10 mi
12:53 PM72 °FPassing clouds.7 mph43%29.88 "Hg10 mi
11:53 AM69 °FPassing clouds.5 mph45%29.89 "Hg10 mi
10:53 AM65 °FPassing clouds.5 mph51%29.90 "Hg10 mi
9:53 AM63 °FPassing clouds.5 mph54%29.90 "Hg10 mi
8:53 AM60 °FPassing clouds.5 mph62%29.90 "Hg10 mi
7:53 AM57 °FPassing clouds.3 mph74%29.89 "Hg10 mi
6:53 AM53 °FPassing clouds.No wind80%29.88 "Hg10 mi
Weather by CustomWeather, © 2016

See weather overviewHow to use our weather pages